Change the Weather History Date:

Sunday, December 4, 2011

  Actual Average Record
Temperature  
Mean Temperature 40 °F -  
Max Temperature 53 °F 42 °F 68 °F (1998)
Min Temperature 28 °F 27 °F 12 °F (2002)
Degree Days  
Heating Degree Days 24    
Moisture  
Dew Point 37 °F    
Average Humidity 83    
Maximum Humidity 100    
Minimum Humidity 58    
Precipitation  
Precipitation 0.00 in - - ()
Sea Level Pressure  
Sea Level Pressure 30.49 in    
Wind  
Wind Speed 2 mph (SSW)    
Max Wind Speed 13 mph    
Max Gust Speed 22 mph    
Visibility 9 miles    
Events      
Averages and records for this station are not official NWS values.
T = Trace of Precipitation, MM = Missing Value Source: NWS Daily Summary

Daily Weather History Graph

Daily Weather History Graph

Search for Another Location

Airport or City:

Trip Planner

Search our weather history database for the weather conditions in past years. The results will help you decide how hot, cold, wet, or windy it might be!

Date:

Astronomy

Dec. 04, 2011 Rise Set
Actual Time 6:56 AM EST 4:15 PM EST
Civil Twilight 6:25 AM EST 4:46 PM EST
Nautical Twilight 5:50 AM EST 5:21 PM EST
Astronomical Twilight 5:17 AM EST 5:54 PM EST
Moon 12:48 PM EST 1:14 AM EST
Length of Visible Light 10h 20m
Length of Day
9h 18m
Waxing Gibbous, 71% of the Moon is Illuminated
Dec 4
Waxing Gibbous
Dec 10
Full
Dec 17
Last Quarter
Dec 24
New
Jan 1
First Quarter

Hourly Weather History & Observations

Time (EST) Temp. Windchill Dew Point Humidity Pressure Visibility Wind Dir Wind Speed Gust Speed Precip Events Conditions
12:35 AM 28.4 °F - 26.6 °F 93% 30.59 in 10.0 mi Calm Calm - N/A   Clear
12:55 AM 28.4 °F - 26.6 °F 93% 30.58 in 9.0 mi Calm Calm - N/A   Clear
1:15 AM 28.4 °F - 28.4 °F 100% 30.58 in 10.0 mi Calm Calm - N/A   Clear
1:55 AM 28.4 °F - 26.6 °F 93% 30.58 in 7.0 mi Calm Calm - N/A   Clear
2:55 AM 28.4 °F - 28.4 °F 100% 30.58 in 5.0 mi Calm Calm - N/A   Clear
3:35 AM 28.4 °F 24.6 °F 28.4 °F 100% 30.58 in 7.0 mi South 3.5 mph - N/A   Partly Cloudy
4:15 AM 30.2 °F - 28.4 °F 93% 30.57 in 5.0 mi Calm Calm - N/A   Partly Cloudy
4:35 AM 30.2 °F - 30.2 °F 100% 30.56 in 7.0 mi Calm Calm - N/A   Clear
5:15 AM 28.4 °F - 26.6 °F 93% 30.56 in 4.0 mi Calm Calm - N/A   Clear
5:35 AM 30.2 °F - 28.4 °F 93% 30.57 in 4.0 mi Calm Calm - N/A   Clear
5:55 AM 30.2 °F - 28.4 °F 93% 30.57 in 4.0 mi Calm Calm - N/A   Clear
6:35 AM 32.0 °F - 30.2 °F 93% 30.58 in 8.0 mi Calm Calm - N/A   Overcast
6:55 AM 33.8 °F - 32.0 °F 93% 30.57 in 9.0 mi Calm Calm - N/A   Overcast
7:15 AM 33.8 °F - 32.0 °F 93% 30.57 in 4.0 mi Calm Calm - N/A   Overcast
7:55 AM 37.4 °F - 35.6 °F 93% 30.56 in 10.0 mi Calm Calm - N/A   Overcast
8:15 AM 37.4 °F - 35.6 °F 93% 30.56 in 10.0 mi Calm Calm - N/A   Overcast
8:35 AM 41.0 °F - 37.4 °F 87% 30.57 in 10.0 mi Calm Calm - N/A   Overcast
8:55 AM 42.8 °F - 37.4 °F 81% 30.57 in 10.0 mi Calm Calm - N/A   Overcast
9:15 AM 42.8 °F - 35.6 °F 76% 30.56 in 10.0 mi Calm Calm - N/A   Scattered Clouds
9:35 AM 42.8 °F 40.1 °F 35.6 °F 76% 30.56 in 10.0 mi SSW 4.6 mph - N/A   Mostly Cloudy
10:15 AM 44.6 °F 41.4 °F 37.4 °F 76% 30.55 in 10.0 mi South 5.8 mph - N/A   Overcast
10:35 AM 46.4 °F 45.2 °F 37.4 °F 71% 30.54 in 10.0 mi SSW 3.5 mph - N/A   Mostly Cloudy
10:55 AM 48.2 °F - 37.4 °F 66% 30.53 in 10.0 mi SSW 5.8 mph - N/A   Mostly Cloudy
11:35 AM 51.8 °F - 39.2 °F 62% 30.51 in 10.0 mi South 6.9 mph - N/A   Mostly Cloudy
11:55 AM 50.0 °F - 39.2 °F 66% 30.50 in 10.0 mi South 6.9 mph - N/A   Overcast
12:15 PM 50.0 °F - 41.0 °F 71% 30.49 in 10.0 mi South 9.2 mph - N/A   Overcast
12:55 PM 51.8 °F - 41.0 °F 67% 30.46 in 10.0 mi South 4.6 mph - N/A   Overcast
1:15 PM 51.8 °F - 39.2 °F 62% 30.46 in 10.0 mi SW 6.9 mph - N/A   Overcast
1:35 PM 53.6 °F - 39.2 °F 58% 30.44 in 10.0 mi SSW 8.1 mph - N/A   Mostly Cloudy
2:15 PM 51.8 °F - 39.2 °F 62% 30.44 in 10.0 mi SW 12.7 mph 21.9 mph N/A   Mostly Cloudy
2:35 PM 51.8 °F - 39.2 °F 62% 30.43 in 10.0 mi SW 8.1 mph 18.4 mph N/A   Scattered Clouds
2:55 PM 51.8 °F - 39.2 °F 62% 30.43 in 10.0 mi SSW 5.8 mph - N/A   Mostly Cloudy
3:35 PM 51.8 °F - 39.2 °F 62% 30.44 in 10.0 mi SW 8.1 mph 16.1 mph N/A   Mostly Cloudy
3:55 PM 50.0 °F - 39.2 °F 66% 30.43 in 10.0 mi SSW 5.8 mph - N/A   Mostly Cloudy
4:15 PM 48.2 °F - 39.2 °F 71% 30.43 in 10.0 mi SSW 5.8 mph - N/A   Scattered Clouds
4:55 PM 48.2 °F - 39.2 °F 71% 30.42 in 10.0 mi South 4.6 mph - N/A   Scattered Clouds
5:15 PM 46.4 °F 45.2 °F 39.2 °F 76% 30.42 in 10.0 mi SSW 3.5 mph - N/A   Mostly Cloudy
5:35 PM 46.4 °F 44.3 °F 41.0 °F 81% 30.42 in 10.0 mi South 4.6 mph - N/A   Mostly Cloudy
5:55 PM 46.4 °F 43.5 °F 41.0 °F 81% 30.42 in 10.0 mi SSW 5.8 mph - N/A   Partly Cloudy
6:35 PM 46.4 °F 44.3 °F 41.0 °F 81% 30.41 in 10.0 mi SSW 4.6 mph - N/A   Clear
7:15 PM 46.4 °F 42.9 °F 42.8 °F 87% 30.42 in 10.0 mi SSW 6.9 mph - N/A   Clear
7:35 PM 46.4 °F 42.9 °F 42.8 °F 87% 30.41 in 10.0 mi SSW 6.9 mph - N/A   Clear
7:55 PM 46.4 °F 42.4 °F 42.8 °F 87% 30.41 in 10.0 mi SSW 8.1 mph - N/A   Clear
8:35 PM 46.4 °F 43.5 °F 44.6 °F 93% 30.41 in 10.0 mi SSW 5.8 mph - N/A   Clear
8:55 PM 44.6 °F 43.1 °F 42.8 °F 93% 30.42 in 10.0 mi SW 3.5 mph - N/A   Clear
9:15 PM 44.6 °F 42.2 °F 42.8 °F 93% 30.41 in 9.0 mi SSW 4.6 mph - N/A   Clear
9:35 PM 44.6 °F 42.2 °F 42.8 °F 93% 30.41 in 10.0 mi SSW 4.6 mph - N/A   Clear
9:55 PM 42.8 °F 41.1 °F 42.8 °F 100% 30.40 in 7.0 mi SSW 3.5 mph - N/A   Clear
10:15 PM 44.6 °F 43.1 °F 42.8 °F 93% 30.39 in 8.0 mi South 3.5 mph - N/A   Clear
10:35 PM 44.6 °F 42.2 °F 42.8 °F 93% 30.39 in 10.0 mi SSW 4.6 mph - N/A   Clear
10:55 PM 44.6 °F 42.2 °F 42.8 °F 93% 30.40 in 7.0 mi SSW 4.6 mph - N/A   Clear
11:15 PM 44.6 °F 42.2 °F 42.8 °F 93% 30.40 in 5.0 mi SSW 4.6 mph - N/A   Clear
11:35 PM 44.6 °F 42.2 °F 42.8 °F 93% 30.40 in 5.0 mi South 4.6 mph - N/A   Clear
11:55 PM 44.6 °F 43.1 °F 42.8 °F 93% 30.40 in 7.0 mi SSW 3.5 mph - N/A   Clear